Regional Weather Roundup
Issued by NWS

Home | Current Version | Previous Version | Graphics & Text | Print | Product List | Glossary On
Versions: 1 2 3 4 5 6 7 8 9 10 11 12 13 14 15 16 17 18 19 20 21 22 23 24 25 26 27 28 29 30 31 32 33 34 35 36 37 38 39 40 41 42 43 44 45 46 47 48 49 50
941
ASUS43 KIND 201159
RWRIN

WEATHER ROUNDUP FOR INDIANA
NATIONAL WEATHER SERVICE INDIANAPOLIS IN
700 AM EST MON FEB 20 2017

NOTE: "FAIR" INDICATES FEW OR NO CLOUDS BELOW 12,000 FEET WITH NO
SIGNIFICANT WEATHER AND/OR OBSTRUCTIONS TO VISIBILITY.

* - STATION DOES NOT REPORT WEATHER SUCH AS PRECIPITATION OR FOG.

+ - STATION NOT QUALITY CONTROLLED BY THE NATIONAL WEATHER SERVICE.
    USE DATA WITH CAUTION...ESPECIALLY DEWPOINT AND RELATIVE
    HUMIDITY OBSERVATIONS.

INZ001>003-010>013-019-020-201300-
NORTHWEST INDIANA

CITY           SKY/WX    TMP DP  RH WIND       PRES   REMARKS
GARY /AIRPORT/ MOCLDY    46  43  87 SE9       30.14S FOG
KNOX *+        MOCLDY    37  28  70 SE5       30.16R
MICHIGAN CITY+ CLOUDY    45  37  76 SE3       30.17R
MONTICELLO +   PTCLDY    43  41  95 CALM      30.16R FOG
6HR MIN TEMP:  38; 6HR MAX TEMP:  44;


$$

LMZ046-743>745-201300-
SOUTHERN LAKE MICHIGAN

STATION/POSITION TIME  TEMP    WIND        PRES    WAVE
                       AIR SEA DIR/SP/G            HT
                 (UTC) (F)     (DEG/KT/KT) (MB)    (FT)
BURNS HARBOR     1140   50     140/  8/ 11 1021.0S
MICHIGAN CITY    1130   46     110/  8/  9   N/A

$$

INZ004-005-014>016-021>024-201300-
NORTH CENTRAL INDIANA

CITY           SKY/WX    TMP DP  RH WIND       PRES   REMARKS
GOSHEN         CLOUDY    37  30  75 E6        30.17F
6HR MIN TEMP:  33; 6HR MAX TEMP:  37;

SOUTH BEND     CLOUDY    41  30  65 E3        30.18S
6HR MIN TEMP:  34; 6HR MAX TEMP:  42;

WARSAW +       CLOUDY    34  32  93 CALM      30.18F

$$

INZ006>009-017-018-025>027-201300-
NORTHEAST INDIANA

CITY           SKY/WX    TMP DP  RH WIND       PRES   REMARKS
ANGOLA *+      CLEAR     36  32  87 CALM      30.21R
FORT WAYNE     CLOUDY    34  31  88 E3        30.20S
6HR MIN TEMP:  34; 6HR MAX TEMP:  39;

KENDALLVILLE + CLOUDY    40  30  66 E3        30.20F

$$

INZ028-029-035-036-043>045-051>053-201300-
WEST CENTRAL INDIANA

CITY           SKY/WX    TMP DP  RH WIND       PRES   REMARKS
LAFAYETTE      CLOUDY    42  42 100 E3        30.17R FOG
6HR MIN TEMP:  36; 6HR MAX TEMP:  44;

TERRE HAUTE    FOG       37  36  96 E3        30.17S VSB 1/4
6HR MIN TEMP:  36; 6HR MAX TEMP:  45;


$$

INZ030>032-037>040-046>048-054>057-064-065-201300-
CENTRAL INDIANA

CITY           SKY/WX    TMP DP  RH WIND       PRES   REMARKS
CP ATTERBURY + CLOUDY    39  37  93 CALM      30.22R VSB<1/4
COLUMBUS       FOG       37  37 100 CALM      30.22  VSB 1/4
FRANKFORT +    FOG       41  40  97 S6        30.19R VSB 1/4
6HR MIN TEMP:  38; 6HR MAX TEMP:  43;

GREENWOOD *+   CLOUDY    42  42 100 SE3       30.21R VSB 1/4
6HR MIN TEMP:  41; 6HR MAX TEMP:  47;

INDIANAPOLIS   FOG       42  41  96 SE6       30.19R VSB 1/4
6HR MIN TEMP:  41; 6HR MAX TEMP:  47;

-EAGLE CREEK   FOG       40  39  97 SE3       30.19R VSB 1
6HR MIN TEMP:  38; 6HR MAX TEMP:  44;

KOKOMO +       FOG       41  41 100 SE7       30.18F VSB 1/4
6HR MIN TEMP:  37; 6HR MAX TEMP:  42;

MT COMFORT *+  CLOUDY    39  39 100 SE5       30.20S VSB 1/4
SHELBYVILLE    FOG       39  37  92 E6        30.20R VSB 1/4
6HR MIN TEMP:  37; 6HR MAX TEMP:  43;


$$

INZ033-034-041-042-049-050-058-059-201300-
EAST CENTRAL INDIANA

CITY           SKY/WX    TMP DP  RH WIND       PRES   REMARKS
MUNCIE         FOG       38  37  97 SE5       30.19F VSB 1/4
6HR MIN TEMP:  36; 6HR MAX TEMP:  49;


$$

INZ060-061-067>069-081>083-085>088-201300-
SOUTHWEST INDIANA

CITY           SKY/WX    TMP DP  RH WIND       PRES   REMARKS
EVANSVILLE     PTCLDY    44  41  89 NE6       30.16S FOG
6HR MIN TEMP:  42; 6HR MAX TEMP:  45;

HUNTINGBURG *+ PTCLDY    42  42 100 SE7       30.18R FOG
6HR MIN TEMP:  41; 6HR MAX TEMP:  45; 6HR PCP:  0.01;


$$

INZ062-063-066-070>080-084-089>092-201300-
SOUTH CENTRAL AND SOUTHEAST INDIANA

CITY           SKY/WX    TMP DP  RH WIND       PRES   REMARKS
BLOOMINGTON    FOG       41  40  96 SE3       30.19R VSB 1/4
6HR MIN TEMP:  35; 6HR MAX TEMP:  44;

MADISON *+     CLOUDY    37  36  93 E3        30.23R VSB 1/2
SEYMOUR +      FOG       41  41 100 CALM      30.21R VSB 1/4

$$





USA.gov is the U.S. government's official web portal to all federal, state and local government web resources and services.